Wind_Speed
4 5 4 4 4 3 3 2 2 2 2 2 2 1 2 1 1 1 1 1 1 1 2 2 2 2 3 3 3 3 4 4 4 4 5 4 4 4 4 5 5 5 6
4 4 4 4 4 3 3 2 1 1 2 2 2 2 2 2 2 2 1 1 1 1 1 1 2 2 2 2 3 3 3 3 3 4 4 4 4 4 4 5 6 6 7
3 3 4 3 3 2 2 2 1 1 2 2 2 3 3 3 3 2 2 1 1 1 1 1 1 1 2 2 2 3 3 3 3 3 4 4 4 4 4 5 6 6 6
2 2 3 3 3 3 2 2 1 1 2 2 2 3 4 3 3 3 2 2 1 1 1 1 1 1 1 2 2 2 2 3 3 3 3 4 4 4 4 5 5 5 5
2 1 2 2 3 3 4 3 3 2 2 2 2 3 4 4 4 3 3 2 2 1 1 1 1 1 1 2 2 2 2 3 3 3 3 3 3 4 4 4 5 5 5
3 1 2 3 4 4 4 5 4 3 3 3 3 4 4 4 4 4 4 3 3 2 2 1 1 1 1 1 2 2 3 3 3 4 3 3 3 4 4 4 4 5 4
4 1 2 3 4 5 5 5 5 4 3 3 4 4 4 4 4 4 3 3 3 3 2 2 1 1 1 1 1 2 3 3 3 3 3 3 3 3 3 4 4 4 4
4 2 2 4 5 6 7 7 6 5 4 4 4 3 4 4 3 3 3 3 3 3 3 2 2 1 1 1 1 2 2 3 2 3 2 3 3 3 3 3 4 4 4
5 3 2 4 5 7 8 7 7 6 5 5 4 4 4 3 3 3 3 3 2 2 2 2 1 1 1 1 1 2 2 2 2 2 2 2 2 2 2 2 3 3 3
6 3 2 3 4 6 8 8 8 7 6 6 5 5 4 4 4 4 3 3 2 2 2 1 1 1 1 1 1 2 2 2 2 2 2 2 2 2 2 2 3 3 3
7 4 3 4 5 6 8 9 9 9 8 7 6 6 5 5 4 4 4 3 2 2 2 1 1 1 1 1 1 1 2 2 2 2 2 2 2 2 2 2 2 3 4
8 6 4 4 5 6 7 8 9 9 9 8 7 7 6 5 5 4 4 4 3 2 2 2 1 1 1 1 1 1 1 1 1 2 2 2 2 2 2 2 2 3 4
9 7 5 4 4 5 6 8 9 10 10 9 8 7 7 6 5 5 4 4 3 2 2 2 1 2 2 1 1 2 2 2 2 1 2 2 2 2 2 2 2 2 3
10 8 6 5 5 5 6 8 10 10 10 9 9 8 7 6 5 5 4 4 3 3 2 2 1 1 2 2 2 2 2 2 2 2 2 2 2 2 2 2 2 2 3
10 9 7 7 5 3 4 7 9 10 10 10 9 9 8 7 6 6 5 4 4 4 3 2 1 1 2 2 3 3 2 2 2 2 2 2 2 2 2 2 2 3 4
9 9 8 6 5 4 4 5 7 10 10 10 10 10 9 8 7 6 6 5 4 4 4 3 2 2 2 2 3 3 3 3 3 3 3 3 3 3 3 3 3 4 4
10 9 9 8 6 5 5 5 7 8 10 11 11 12 11 9 8 7 6 6 5 4 4 3 3 3 3 3 4 4 4 4 4 4 4 3 3 3 3 4 4 4 5
10 10 9 8 7 5 4 5 6 8 9 10 10 11 12 11 10 8 7 7 6 5 4 4 3 3 3 3 4 4 4 4 4 4 4 4 4 4 4 4 5 5 6
11 10 9 8 8 7 4 4 6 7 8 9 11 11 12 12 11 10 9 7 7 6 5 5 4 4 3 4 4 4 4 4 5 5 5 5 5 5 4 4 5 5 5
11 10 10 8 8 7 5 4 5 6 8 10 12 12 12 12 11 11 10 9 8 7 7 6 5 5 4 4 4 5 5 5 5 6 6 6 6 6 5 5 5 5 6
10 9 9 8 7 7 6 5 5 6 8 10 10 12 12 12 12 12 11 10 9 9 8 7 7 7 7 6 6 5 6 6 6 6 7 7 7 7 7 6 6 6 6
9 8 8 7 7 6 6 5 4 6 7 8 10 10 10 11 11 12 11 11 10 10 10 9 9 9 9 8 8 7 7 7 7 7 8 8 8 8 8 8 7 7 6
9 8 7 7 7 6 6 6 5 5 6 7 8 9 9 10 11 12 12 11 11 11 11 10 10 10 10 10 10 9 9 8 8 8 9 8 8 8 8 9 9 8 7
9 8 7 7 7 7 6 6 4 4 5 6 7 9 10 11 11 12 12 11 11 10 10 11 11 11 11 11 11 11 11 10 10 10 10 10 10 10 10 10 10 10 10
8 8 7 7 7 7 6 6 5 5 5 6 8 9 10 11 12 12 12 12 12 12 11 11 12 12 12 12 12 12 12 12 12 12 12 12 12 11 11 12 11 12 12
8 7 7 7 7 6 6 6 5 5 6 7 8 10 11 11 12 13 13 13 13 13 13 13 13 12 13 13 13 13 13 13 14 13 14 14 13 13 14 14 14 14 15
Wind_Direction
101 127 130 118 116 107 103 92 66 45 12 344 333 320 299 282 268 248 229 196 171 156 141 131 129 121 114 106 100 99 98 102 102 98 97 98 97 95 101 106 115 111 112
99 117 130 135 133 126 128 121 89 7 347 343 337 313 294 284 273 258 249 233 190 165 148 140 143 128 117 114 109 106 104 110 112 107 104 103 102 96 104 112 115 114 117
88 114 139 143 144 147 159 157 164 288 324 333 322 305 297 292 282 270 267 255 222 195 182 168 157 139 128 127 121 119 110 108 111 113 111 113 110 102 108 116 120 118 118
80 128 152 153 157 163 177 182 196 248 296 310 310 302 301 298 291 286 278 266 249 237 241 228 171 149 140 136 130 128 114 107 107 118 122 120 117 109 114 117 122 121 120
66 123 177 186 183 190 205 212 219 242 271 289 294 296 299 299 297 294 287 275 266 267 258 241 227 188 159 139 130 127 119 115 114 118 123 122 123 122 129 127 132 127 126
26 7 219 221 215 215 220 224 229 238 248 264 278 288 289 289 292 289 281 276 280 271 261 256 244 209 169 145 132 125 124 114 115 110 111 118 122 130 142 142 142 137 138
351 326 230 225 220 222 228 230 227 229 241 257 264 274 280 289 294 288 272 276 277 265 260 267 255 217 182 158 141 134 137 134 124 118 118 122 126 137 146 156 153 150 151
348 303 250 235 224 220 224 228 229 228 233 247 256 263 273 287 292 288 280 274 266 256 257 264 259 236 205 175 143 140 144 143 135 126 134 141 142 149 151 158 168 163 160
359 330 267 241 234 225 224 226 229 230 232 240 251 258 269 278 283 284 280 282 275 263 260 257 256 229 196 181 150 138 148 151 153 142 151 156 158 158 158 169 174 172 175
1 343 278 245 235 229 227 228 228 231 232 237 246 252 262 272 277 280 278 275 272 269 273 271 248 217 195 179 165 163 170 162 164 163 171 172 171 173 173 171 179 186 194
1 346 290 258 247 237 232 229 227 230 232 235 240 247 257 270 270 270 264 261 263 266 272 274 242 202 197 195 181 187 181 172 176 184 196 199 195 192 184 183 191 201 206
360 352 322 279 250 239 233 231 229 229 231 233 238 244 252 260 262 262 254 253 256 257 259 261 240 222 206 203 192 192 191 210 204 200 216 216 207 204 208 204 206 217 209
357 357 346 308 271 245 245 238 233 230 230 233 236 241 245 249 251 252 250 252 253 257 259 254 248 235 216 212 220 221 228 244 247 241 241 237 228 217 216 220 223 221 217
357 355 349 324 285 263 252 243 236 232 229 230 233 237 241 245 242 237 244 246 250 252 254 248 255 240 234 239 254 245 243 259 252 249 255 257 243 232 228 222 228 233 233
1 360 347 334 311 296 262 242 231 229 226 224 228 229 230 234 234 231 236 241 248 249 245 239 246 253 245 246 260 258 260 269 267 268 260 253 241 241 242 236 246 248 242
355 354 354 348 326 310 288 249 238 228 224 223 223 223 224 226 227 232 234 236 240 241 237 235 238 251 251 253 259 262 269 272 272 268 266 255 252 252 257 250 252 252 244
348 350 350 345 339 314 282 252 238 229 224 222 221 220 219 218 218 224 228 227 230 232 230 234 238 249 256 257 258 263 265 264 268 272 272 265 260 257 260 255 254 252 246
345 343 343 343 342 326 292 248 246 232 222 219 219 217 216 216 217 220 220 220 223 226 232 234 236 245 255 262 266 267 266 262 265 272 272 269 267 268 266 261 260 255 249
339 341 338 338 340 328 303 264 248 230 224 220 220 216 215 216 217 216 218 220 222 225 232 235 237 246 259 264 264 265 263 266 267 268 270 270 271 273 270 267 266 260 251
335 336 333 333 332 329 311 278 251 232 230 224 222 218 216 216 215 217 221 223 224 228 234 237 239 243 253 262 264 265 262 265 266 268 268 270 269 269 269 266 266 261 255
328 330 329 326 323 324 324 298 266 246 236 223 218 218 216 215 215 220 221 223 226 229 233 238 243 244 248 255 262 262 259 263 266 268 270 267 268 265 262 258 258 261 258
324 322 323 317 319 322 326 315 281 254 238 225 219 214 215 215 219 223 222 223 228 232 236 239 243 245 248 251 255 256 257 260 263 269 269 267 266 266 259 255 259 260 257
324 319 317 313 319 319 315 310 290 264 242 232 221 219 221 222 221 224 227 228 232 236 239 242 243 246 250 251 251 253 254 258 261 264 266 266 265 264 262 260 260 255 257
327 324 318 312 311 309 304 304 299 282 252 239 230 226 225 224 226 228 230 232 235 241 244 247 249 250 252 253 252 253 254 257 260 262 261 262 263 264 263 263 262 259 263
324 321 316 316 313 306 304 299 294 281 254 241 235 234 232 230 230 230 235 237 240 245 248 251 250 250 252 254 255 256 257 258 260 260 260 262 263 265 266 264 264 265 265
316 309 308 310 312 308 301 296 294 278 259 251 243 239 236 236 237 235 241 239 242 247 249 252 252 250 252 254 257 258 258 260 262 260 259 261 263 265 266 265 265 267 269
Height
5892 5891 5892 5893 5894 5894 5895 5896 5897 5897 5897 5898 5898 5898 5899 5899 5899 5899 5898 5898 5898 5898 5898 5898 5898 5898 5897 5897 5897 5897 5897 5897 5897 5897 5897 5897 5896 5896 5896 5896 5896 5896 5896
5893 5892 5893 5894 5894 5895 5896 5897 5897 5898 5898 5898 5899 5899 5899 5899 5899 5899 5899 5899 5899 5899 5898 5898 5898 5898 5898 5898 5898 5898 5898 5898 5897 5898 5898 5897 5897 5897 5897 5897 5897 5897 5897
5893 5893 5894 5894 5895 5896 5896 5897 5898 5898 5899 5899 5900 5900 5900 5900 5900 5900 5899 5899 5899 5899 5899 5899 5899 5899 5898 5898 5898 5898 5898 5898 5898 5898 5898 5898 5898 5898 5898 5898 5898 5898 5898
5894 5894 5895 5895 5896 5896 5897 5898 5898 5899 5899 5900 5900 5900 5901 5900 5900 5900 5900 5899 5899 5899 5899 5899 5899 5899 5898 5898 5898 5898 5898 5898 5898 5898 5899 5899 5899 5899 5899 5899 5899 5899 5899
5894 5895 5895 5895 5896 5896 5897 5898 5898 5899 5900 5900 5900 5901 5901 5901 5901 5901 5900 5900 5900 5900 5899 5899 5899 5899 5899 5899 5899 5899 5899 5898 5898 5898 5899 5899 5899 5899 5899 5899 5899 5900 5900
5894 5894 5895 5895 5896 5896 5897 5898 5898 5899 5900 5900 5901 5901 5901 5901 5901 5901 5901 5901 5900 5900 5900 5899 5899 5899 5899 5899 5899 5899 5899 5899 5899 5899 5899 5899 5899 5899 5900 5900 5900 5900 5901
5894 5894 5894 5894 5895 5896 5896 5897 5898 5899 5900 5900 5901 5901 5901 5901 5901 5901 5901 5901 5901 5900 5900 5900 5900 5899 5899 5899 5899 5899 5899 5899 5899 5899 5899 5900 5900 5900 5900 5900 5900 5901 5901
5894 5894 5894 5894 5894 5895 5896 5897 5897 5898 5899 5900 5900 5901 5901 5901 5901 5901 5901 5901 5901 5900 5900 5900 5900 5900 5900 5900 5899 5899 5900 5900 5900 5900 5900 5900 5900 5900 5900 5900 5901 5901 5901
5893 5893 5893 5893 5893 5894 5895 5896 5897 5898 5898 5899 5900 5900 5901 5901 5901 5901 5901 5901 5901 5900 5900 5900 5900 5900 5900 5900 5900 5900 5900 5900 5900 5900 5900 5900 5900 5900 5900 5901 5901 5901 5901
5893 5892 5892 5892 5893 5893 5894 5895 5896 5897 5898 5898 5899 5900 5900 5901 5901 5901 5901 5901 5901 5901 5900 5900 5900 5900 5900 5900 5900 5900 5900 5900 5900 5900 5900 5901 5901 5901 5901 5901 5901 5901 5901
5893 5892 5891 5891 5891 5892 5893 5894 5895 5896 5897 5897 5898 5899 5900 5900 5900 5900 5900 5900 5900 5900 5900 5900 5900 5900 5901 5900 5900 5900 5900 5900 5900 5900 5901 5901 5901 5901 5901 5901 5901 5901 5901
5892 5891 5890 5890 5890 5890 5891 5892 5893 5894 5895 5896 5897 5898 5899 5899 5900 5900 5900 5900 5900 5900 5900 5900 5900 5900 5901 5901 5900 5900 5900 5900 5900 5900 5901 5901 5901 5901 5901 5900 5900 5901 5901
5892 5890 5889 5889 5888 5889 5890 5890 5891 5892 5894 5895 5896 5897 5898 5898 5899 5899 5899 5900 5900 5900 5900 5900 5900 5900 5900 5900 5900 5900 5900 5900 5900 5900 5900 5900 5900 5900 5900 5900 5900 5900 5901
5891 5889 5888 5888 5887 5887 5887 5888 5889 5890 5892 5893 5894 5895 5896 5897 5897 5898 5899 5899 5899 5900 5900 5899 5900 5900 5900 5900 5900 5900 5900 5900 5900 5900 5900 5900 5900 5900 5900 5900 5900 5900 5900
5891 5889 5887 5885 5885 5885 5885 5886 5887 5888 5890 5891 5892 5894 5895 5896 5896 5897 5898 5898 5899 5899 5899 5899 5899 5899 5900 5900 5900 5900 5900 5900 5900 5899 5899 5900 5899 5899 5899 5899 5899 5899 5899
5890 5888 5886 5885 5885 5884 5884 5884 5885 5886 5887 5889 5890 5892 5893 5894 5896 5896 5897 5897 5898 5898 5899 5899 5899 5899 5899 5899 5899 5899 5899 5899 5900 5900 5899 5899 5899 5899 5899 5899 5899 5899 5899
5889 5887 5885 5884 5883 5883 5882 5882 5883 5884 5885 5887 5888 5890 5891 5893 5894 5895 5896 5897 5897 5898 5898 5898 5898 5898 5899 5899 5899 5899 5899 5899 5899 5899 5899 5899 5898 5898 5898 5898 5898 5898 5898
5887 5886 5884 5883 5882 5881 5880 5881 5881 5881 5883 5885 5886 5888 5889 5891 5892 5894 5895 5895 5896 5897 5897 5897 5897 5898 5898 5898 5898 5898 5898 5898 5898 5898 5898 5898 5898 5897 5897 5897 5897 5896 5896
5885 5884 5883 5881 5880 5879 5878 5879 5879 5879 5881 5883 5884 5886 5887 5889 5891 5892 5893 5894 5895 5896 5896 5896 5896 5897 5897 5897 5897 5897 5897 5897 5898 5897 5897 5897 5897 5897 5896 5896 5896 5895 5895
5884 5883 5882 5880 5879 5878 5877 5877 5877 5878 5879 5880 5882 5884 5885 5887 5889 5890 5892 5893 5893 5894 5895 5895 5896 5896 5896 5896 5896 5896 5896 5896 5896 5896 5896 5896 5896 5896 5895 5895 5894 5894 5894
5883 5882 5881 5880 5878 5877 5876 5876 5876 5876 5877 5878 5880 5881 5883 5885 5886 5888 5889 5890 5892 5892 5893 5894 5894 5895 5895 5895 5895 5895 5895 5895 5895 5895 5895 5895 5895 5894 5894 5893 5893 5893 5892
5881 5880 5880 5879 5878 5876 5875 5875 5875 5875 5875 5876 5878 5879 5881 5883 5884 5886 5887 5888 5889 5890 5891 5892 5892 5893 5893 5894 5894 5894 5894 5895 5894 5894 5894 5893 5893 5893 5892 5892 5891 5891 5891
5881 5879 5878 5877 5876 5876 5875 5874 5873 5874 5874 5875 5876 5877 5879 5880 5882 5883 5884 5885 5887 5888 5889 5889 5890 5890 5891 5892 5892 5892 5893 5893 5893 5893 5892 5892 5891 5891 5891 5890 5890 5890 5889
5880 5878 5877 5876 5875 5875 5874 5873 5872 5872 5873 5873 5874 5875 5876 5878 5879 5881 5882 5883 5884 5885 5886 5887 5887 5888 5888 5889 5889 5890 5890 5891 5891 5891 5890 5890 5890 5889 5889 5889 5889 5888 5887
5879 5877 5876 5875 5874 5873 5872 5872 5871 5871 5871 5871 5872 5873 5874 5875 5877 5878 5879 5880 5881 5882 5883 5884 5884 5885 5885 5886 5887 5887 5887 5888 5888 5888 5888 5888 5887 5887 5887 5887 5886 5886 5885
5877 5876 5875 5874 5873 5872 5871 5870 5870 5869 5869 5869 5870 5870 5871 5872 5873 5875 5876 5877 5878 5879 5880 5880 5881 5882 5882 5883 5883 5884 5884 5885 5885 5885 5885 5885 5884 5884 5884 5884 5884 5883 5883